Regional Weather Roundup
Issued by NWS

Home | Current Version | Previous Version | Text Only | Print | Product List | Glossary Off
Versions: 1 2 3 4 5 6 7 8 9 10 11 12 13 14 15 16 17 18 19 20 21 22 23 24 25 26 27 28 29 30 31 32 33 34 35 36 37 38 39 40 41 42 43 44 45 46 47 48 49 50

000
ASUS43 KOAX 290610
RWRNE

WEATHER ROUNDUP FOR NEBRASKA
NATIONAL WEATHER SERVICE OMAHA NE
100 AM CDT TUE JUL 29 2014

NOTES: SATELLITE DATA IS BEING USED TO AUGMENT CLOUD COVER ABOVE
       12000 FEET.
       "FAIR" INDICATES FEW OR NO CLOUDS BELOW 12,000 FEET WITH NO
       SIGNIFICANT WEATHER AND/OR OBSTRUCTIONS TO VISIBILITY.

  * THESE STATIONS DO NOT REPORT WEATHER SUCH AS RAIN...SNOW OR FOG.

NEZ001>004-019>022-054>056-290700-
NEBRASKA PANHANDLE

CITY           SKY/WX    TMP DP  RH WIND       PRES   REMARKS
SCOTTSBLUFF    CLEAR     68  61  78 E6        30.22S
6HR MIN TEMP:  67; 6HR MAX TEMP:  88;

ALLIANCE       CLEAR     66  58  75 E8        30.24S
6HR MIN TEMP:  66; 6HR MAX TEMP:  87;

CHADRON        CLEAR     65  54  67 NE8       30.23S
6HR MIN TEMP:  65; 6HR MAX TEMP:  87;

KIMBALL        MOCLDY    64  58  80 S5        30.27S
SIDNEY         PTCLDY    64  53  67 SW7       30.25F
6HR MIN TEMP:  62; 6HR MAX TEMP:  84;

$$

NEZ057>060-069>072-079>082-290700-
SOUTHWEST NEBRASKA

CITY           SKY/WX    TMP DP  RH WIND       PRES   REMARKS
NORTH PLATTE   CLEAR     62  58  86 E8        30.24R
6HR MIN TEMP:  62; 6HR MAX TEMP:  80;

IMPERIAL       CLOUDY    66  58  75 SE12      30.23S
6HR MIN TEMP:  66; 6HR MAX TEMP:  88;

LEXINGTON      PTCLDY    66  58  76 SE9       30.24S
MCCOOK         MOCLDY    67  58  72 E10       30.23S
6HR MIN TEMP:  67; 6HR MAX TEMP:  85;

OGALLALA       PTCLDY    64  58  81 E7        30.23S
$$

NEZ005>010-023>029-035>040-094-290700-
NORTH CENTRAL NEBRASKA

CITY           SKY/WX    TMP DP  RH WIND       PRES   REMARKS
VALENTINE      PTCLDY    62  51  67 E8        30.25S
6HR MIN TEMP:  62; 6HR MAX TEMP:  81;

AINSWORTH      PTCLDY    58  55  91 E3        30.25S
BROKEN BOW     MOCLDY    61  57  87 CALM      30.24R
6HR MIN TEMP:  61; 6HR MAX TEMP:  80;

O`NEILL        CLEAR     59  52  77 CALM      30.25S
ORD            CLEAR     57  55  93 CALM      30.23R
6HR MIN TEMP:  57; 6HR MAX TEMP:  78;

THEDFORD       CLEAR     62  56  79 SE5       30.26S
$$

NEZ041-046>049-061>064-073>077-083>087-290700-
SOUTH CENTRAL NEBRASKA

CITY           SKY/WX    TMP DP  RH WIND       PRES   REMARKS
GRAND ISLAND   MOCLDY    62  57  83 E3        30.23S
6HR MIN TEMP:  61; 6HR MAX TEMP:  76;

AURORA         PTCLDY    59  58  96 CALM      30.22S
HASTINGS       CLOUDY    67  54  63 SE6       30.23R
6HR MIN TEMP:  66; 6HR MAX TEMP:  77;

HEBRON         MOCLDY    64  57  79 CALM      30.21S
HOLDREGE       PTCLDY    64  58  81 SE7       30.23S
KEARNEY *      MOCLDY    63  57  82 SE5       30.24S
YORK           CLEAR     59  55  88 N3        30.22S
$$

NEZ011>018-030>034-042>045-290700-
NORTHEAST NEBRASKA

CITY           SKY/WX    TMP DP  RH WIND       PRES   REMARKS
NORFOLK        CLEAR     54  51  90 SW3       30.22S
6HR MIN TEMP:  54; 6HR MAX TEMP:  75;

ALBION         CLEAR     56  53  91 CALM      30.24S
BLAIR          CLEAR     64  55  72 N3        30.20S
COLUMBUS *     CLEAR     55  48  76 CALM      30.22F
FREMONT        CLEAR     61  55  82 NW3       30.21S
TEKAMAH        CLEAR     58  54  86 CALM      30.20R
6HR MIN TEMP:  58; 6HR MAX TEMP:  78;

WAYNE          CLEAR     55  53  95 CALM      30.23R
$$

NEZ050>053-065>068-078-088>093-290700-
SOUTHEAST NEBRASKA

CITY           SKY/WX    TMP DP  RH WIND       PRES   REMARKS
LINCOLN        CLEAR     59  54  83 N12       30.20F
6HR MIN TEMP:  59; 6HR MAX TEMP:  78;

OMAHA EPPLEY   CLEAR     63  57  81 N7        30.20R
6HR MIN TEMP:  63; 6HR MAX TEMP:  78;

BEATRICE       CLEAR     56  52  88 CALM      30.20S
FALLS CITY     CLEAR     60  55  83 NW3       30.19R
6HR MIN TEMP:  60; 6HR MAX TEMP:  77;

NEBRASKA CITY  CLEAR     62  55  78 NW6       30.20S
PLATTSMOUTH    CLEAR     62  55  79 NW3       30.20S
$$

NEZ044-045-051>053-067-290700-
OMAHA AREA

CITY           SKY/WX    TMP DP  RH WIND       PRES   REMARKS
OMAHA EPPLEY   CLEAR     63  57  81 N7        30.20R
6HR MIN TEMP:  63; 6HR MAX TEMP:  78;

BLAIR          CLEAR     64  55  72 N3        30.20S
FREMONT        CLEAR     61  55  82 NW3       30.21S
MILLARD        CLEAR     64  56  76 CALM      30.20S
OFFUTT AFB     CLEAR     62  58  88 CALM      30.19S
PLATTSMOUTH    CLEAR     62  55  79 NW3       30.20S
WAHOO          FAIR      61  55  81 NW3       30.21S
$$



USA.gov is the U.S. government's official web portal to all federal, state and local government web resources and services.